Simultaneous Nadir Overpasses (SNOs) Predictions

Prediction of SNOs between AQUA and NOAA-19 Satellite Orbit:

Table of predicted SNOs for the next 14.0 days since TLE Epoch: 7/24/2021
Index Date (AQUA) Time (AQUA) Lat,Lon (AQUA) SZA (AQUA ) Date (NOAA-19) Time (NOAA-19) Lat,Lon (NOAA-19) SZA (NOAA-19 ) Distance(km) Time Diff (sec)
1 07/24/2021 08:01:18 78.66, 37.86 59.83 07/24/2021 08:01:00 78.68, 37.85 59.86 2.28 18
2 07/24/2021 08:50:51 -78.96,-156.19 119.75 07/24/2021 08:51:56 -79.00,-152.50 120.04 78.73 65
3 07/26/2021 13:35:02 -78.67, 134.35 119.67 07/26/2021 13:34:15 -78.63, 134.32 119.68 4.23 47
4 07/26/2021 14:24:30 78.70, -58.16 60.38 07/26/2021 14:25:08 78.68, -58.07 60.34 2.74 38
5 07/28/2021 19:58:13 -78.67, 38.55 119.15 07/28/2021 19:58:22 -78.68, 38.68 119.16 2.89 9
6 07/31/2021 01:31:57 78.63, 135.33 61.33 07/31/2021 01:31:25 78.64, 135.25 61.36 2.08 32
7 07/31/2021 02:21:24 -78.68, -57.28 118.60 07/31/2021 02:22:30 -78.68, -57.23 118.62 1.10 66
8 08/02/2021 07:05:40 -78.61,-127.98 118.14 08/02/2021 07:04:39 -78.64,-127.98 118.09 3.34 61
9 08/02/2021 07:55:08 78.65, 39.46 61.92 08/02/2021 07:55:33 78.64, 39.30 61.92 3.60 25
10 08/04/2021 13:28:50 -78.62, 136.15 117.53 08/04/2021 13:28:46 -78.64, 136.05 117.51 2.44 4
11 08/04/2021 14:18:26 78.99, -58.29 62.99 08/04/2021 14:19:29 79.01, -53.88 62.63 93.58 63
12 08/06/2021 19:02:34 78.61,-127.19 63.05 08/06/2021 19:01:48 78.63,-127.19 63.09 2.26 46



Historial Predications of SNOs between AQUA and NOAA-19
